This is the latest recevied weather packets stored in our database for station/object W7MKM-13. If no packets are shown the sender has not sent any weather packets the latest 10 day(s).
| Time | Temp. | Humidity | Pressure | Rain* | Wind** | Luminosity | Snow |
|---|---|---|---|---|---|---|---|
| 1777303817 | 5.56° C | 88% | 1012.6 hPa | 0 mm | - | 62 W/m² | - |
| 1777303517 | 5.56° C | 88% | 1012.6 hPa | 0 mm | - | 66 W/m² | - |
| 1777302317 | 5.56° C | 87% | 1012.4 hPa | 0 mm | - | 89 W/m² | - |
| 1777300517 | 6.11° C | 86% | 1012.1 hPa | 0 mm | - | 67 W/m² | - |
| 1777300217 | 6.11° C | 86% | 1012.3 hPa | 0 mm | - | 49 W/m² | - |
| 1777299317 | 6.11° C | 87% | 1012.2 hPa | 0 mm | - | 42 W/m² | - |
| 1777296317 | 5° C | 88% | 1011.3 hPa | 0.25 mm | - | 16 W/m² | - |
| 1777296017 | 5.56° C | 88% | 1011.2 hPa | 0.25 mm | - | 17 W/m² | - |
| 1777291817 | 5° C | 87% | 1010.5 hPa | 0 mm | - | 0 W/m² | - |
| 1777290917 | 5° C | 87% | 1010.4 hPa | 0 mm | - | 0 W/m² | - |
| 1777289717 | 5° C | 87% | 1010.1 hPa | 0 mm | - | 0 W/m² | - |
| 1777288817 | 5° C | 87% | 1010.3 hPa | 0 mm | - | 0 W/m² | - |
| 1777288517 | 5° C | 87% | 1010.3 hPa | 0 mm | - | 0 W/m² | - |
| 1777285217 | 5.56° C | 85% | 1010.6 hPa | 0 mm | - | 0 W/m² | - |
| 1777284017 | 6.11° C | 86% | 1011 hPa | 0 mm | - | 0 W/m² | - |
| 1777283417 | 6.11° C | 86% | 1010.9 hPa | 0 mm | - | 0 W/m² | - |
| 1777276817 | 5.56° C | 90% | 1010.6 hPa | 0 mm | - | 0 W/m² | - |
| 1777276517 | 5° C | 90% | 1010.6 hPa | 0 mm | - | 0 W/m² | - |
| 1777276217 | 5° C | 90% | 1010.6 hPa | 0 mm | - | 0 W/m² | - |
| 1777272917 | 4.44° C | 90% | 1009.9 hPa | 0 mm | - | 0 W/m² | - |
| 1777272017 | 4.44° C | 90% | 1009.7 hPa | 0 mm | - | 0 W/m² | - |
| 1777264817 | 5° C | 89% | 1008.8 hPa | 0 mm | - | 0 W/m² | - |
| 1777262717 | 5° C | 88% | 1008.4 hPa | 0 mm | - | 0 W/m² | - |
| 1777261817 | 5.56° C | 88% | 1008.2 hPa | 0 mm | - | 0 W/m² | - |
| 1777261517 | 5.56° C | 88% | 1008.1 hPa | 0 mm | - | 0 W/m² | - |
* Rain latest hour (hover to see other rain measurements)
** Current wind speed in m/s (hover to see current wind gust speed)